Home > Weather > Grenoble > Past weeks

Flag for France Past Weather in Grenoble, Rhône-Alpes, France — Yesterday and Last 2 Weeks

Now
84 °F

Passing clouds.


Feels Like: 85 °F
Forecast: 67 / 82 °F
Wind: 8 mph from Southwest

Location: Grenoble / St. Geoirs

Current Time: Jun 29, 2016 at 6:37:39 PM

Latest Report: Jun 29, 2016 at 6:00 PM


Visibility: N/A

Pressure: 29.95 "Hg

Humidity: 48%

Dew Point: 63 °F

Location of GrenobleLocation

Past Weather in Grenoble — Graph

°F

Grenoble Temperature Yesterday

Maximum temperature yesterday: 81 °F (at 6:00 PM)
Minimum temperature yesterday: 54 °F (at 5:00 AM)
Average temperature yesterday: 68 °F

High & Low Weather Summary for the Past Weeks

 TemperatureHumidityPressure
High88 °F (Jun 24, 4:30 PM)100% (Jun 16, 1:30 AM)30.24 "Hg (Jun 16, 1:30 AM)
Low50 °F (Jun 15, 1:30 AM)35% (Jun 24, 6:00 PM)29.56 "Hg (Jun 15, 8:00 PM)
Average66 °F72%30.05 "Hg
* Reported Jun 14 5:00 PM — Jun 29 5:30 PM, Grenoble, Weather by CustomWeather, © 2016

Note: Actual official high and low records may vary slightly from our data, if they occured in-between our weather recording intervals... More about our weather records

Advertising

Grenoble Weather History for the Previous 24 Hours

Scroll right to see more
 ConditionsComfort  
Time TempWeatherWind HumidityBarometerVisibility
5:30 PM
Wed, Jun 29
84 °FPassing clouds.8 mph48%29.95 "HgN/A
5:00 PM84 °FPassing clouds.9 mph48%29.95 "HgN/A
4:30 PM82 °FSunny.5 mph51%29.95 "Hg10 mi
4:00 PM82 °FPassing clouds.3 mph51%29.98 "HgN/A
3:30 PM82 °FSunny.5 mph51%29.98 "Hg10 mi
3:00 PM81 °FSunny.5 mph58%29.98 "Hg10 mi
2:30 PM79 °FScattered clouds.5 mph58%30.01 "HgN/A
2:00 PM79 °FPassing clouds.5 mph58%30.01 "HgN/A
1:30 PM79 °FPassing clouds.5 mph61%30.01 "HgN/A
1:00 PM77 °FPassing clouds.3 mph61%30.01 "HgN/A
12:30 PM77 °FPassing clouds.5 mph57%30.01 "HgN/A
12:00 PM75 °FSunny.2 mph65%30.01 "Hg10 mi
11:30 AM75 °FPassing clouds.5 mph61%30.01 "HgN/A
11:00 AM73 °FSunny.3 mph65%30.04 "Hg10 mi
10:30 AM73 °FSunny.2 mph65%30.04 "Hg10 mi
10:00 AM72 °FSunny.3 mph65%30.07 "Hg10 mi
9:30 AM70 °FSunny.2 mph73%30.07 "Hg10 mi
9:00 AM70 °FPassing clouds.2 mph73%30.07 "HgN/A
8:30 AM66 °FPartly sunny.2 mph78%30.07 "HgN/A
8:00 AM64 °FOvercast.3 mph88%30.07 "HgN/A
7:30 AM63 °FOvercast.No wind88%30.07 "HgN/A
7:00 AM61 °FOvercast.3 mph94%30.07 "HgN/A
6:30 AM59 °FPassing clouds.2 mph100%30.07 "HgN/A
6:00 AM57 °FClear.3 mph94%30.04 "Hg10 mi
5:30 AM57 °FClear.3 mph94%30.04 "Hg10 mi
5:00 AM59 °FClear.2 mph94%30.04 "Hg10 mi
4:30 AM59 °FPassing clouds.2 mph94%30.04 "HgN/A
4:00 AM59 °FPassing clouds.3 mph100%30.04 "HgN/A
3:30 AM61 °FPassing clouds.2 mph88%30.04 "HgN/A
3:00 AM61 °FPassing clouds.3 mph94%30.04 "HgN/A
2:30 AM63 °FPassing clouds.2 mph88%30.04 "HgN/A
2:00 AM63 °FPassing clouds.2 mph94%30.04 "HgN/A
1:30 AM63 °FPassing clouds.3 mph88%30.04 "HgN/A
1:00 AM64 °FPassing clouds.2 mph88%30.04 "HgN/A
12:30 AM64 °FPassing clouds.1 mph88%30.04 "HgN/A
12:00 AM66 °FPassing clouds.No wind83%30.04 "HgN/A
11:30 PM
Tue, Jun 28
66 °FOvercast.No wind88%30.04 "HgN/A
11:00 PM64 °FPassing clouds.2 mph83%30.04 "HgN/A
10:30 PM66 °FClear.2 mph83%30.04 "HgN/A
10:00 PM68 °FSunny.5 mph73%30.04 "HgN/A
9:30 PM70 °FPassing clouds.5 mph73%30.04 "HgN/A
9:00 PM72 °FSunny.5 mph69%30.01 "Hg10 mi
8:30 PM75 °FSunny.6 mph65%30.04 "Hg10 mi
8:00 PM77 °FPassing clouds.5 mph57%30.01 "HgN/A
7:30 PM79 °FPassing clouds.3 mph54%30.01 "HgN/A
7:00 PM81 °FSunny.2 mph48%30.04 "Hg10 mi
6:30 PM79 °FSunny.3 mph51%30.04 "Hg10 mi
6:00 PM81 °FSunny.2 mph48%30.04 "Hg10 mi
Weather by CustomWeather, © 2016

See weather overviewHow to use our weather pages